Location: Spondin
(51.8528°N, 111.6118°W)
Time: 17:29:54
(UTC+00:00)

Vanguard 2 Rocket - Pass Details

Date: 28 May 2022
Orbit: 553 x 3323 km, 32.9° (Epoch: 02 July)

Event Time Altitude Azimuth Distance (km) Brightness Sun altitude
Rises 18:26:08 0° 203° (SSW) 7,138 11.7 57.7°
Reaches altitude 10° 18:32:29 10° 191° (S) 6,254 11.7 58.1°
Maximum altitude 18:46:01 23° 149° (SSE) 5,059 11.7 58.8°
Drops below altitude 10° 18:57:54 10° 106° (ESE) 5,492 11.2 59.3°
Sets 19:02:51 0° 93° (E) 6,116 11.2 59.4°
